WA6MHA-11 Weather Reports


Display with metric or nautical units.
time (UTC)temp
F
wind
direction
speed
MPH
gust
MPH
rain 1hr
in
rain 24hr
in
rain mn
in
humidity
%
barometer
mb
20260509111413 58 135 1.0 2.0 0.00 0.00 0.00 57 1014.5
20260509105808 58 99 4.0 4.0 0.00 0.00 0.00 57 1014.6
20260509105406 58 135 2.0 2.0 0.00 0.00 0.00 57 1014.6
20260509103804 58 180 1.0 3.0 0.00 0.00 0.00 57 1014.6
20260509103401 58 155 0.0 3.0 0.00 0.00 0.00 57 1014.5
20260509102159 58 137 4.0 7.0 0.00 0.00 0.00 57 1014.6
20260509101354 58 180 0.0 6.0 0.00 0.00 0.00 57 1014.7
20260509100954 58 195 3.0 8.0 0.00 0.00 0.00 57 1014.7
20260509094946 58 135 4.0 5.0 0.00 0.00 0.00 57 1014.8
20260509094143 58 135 3.0 3.0 0.00 0.00 0.00 57 1014.8
20260509093743 58 139 3.0 4.0 0.00 0.00 0.00 57 1014.8
20260509093341 58 135 4.0 5.0 0.00 0.00 0.00 57 1014.8
20260509092940 58 135 3.0 3.0 0.00 0.00 0.00 57 1014.9
20260509091738 58 132 2.0 3.0 0.00 0.00 0.00 58 1014.8
20260509091736 58 132 2.0 3.0 0.00 0.00 0.00 58 1014.8
20260509091334 58 123 2.0 4.0 0.00 0.00 0.00 58 1015.0
20260509090934 58 94 3.0 5.0 0.00 0.00 0.00 58 1014.8
20260509090532 58 85 2.0 3.0 0.00 0.00 0.00 58 1015.0
20260509090131 58 135 3.0 5.0 0.00 0.00 0.00 58 1015.0
20260509085730 58 135 2.0 4.0 0.00 0.00 0.00 58 1014.9
20260509085328 57 99 1.0 3.0 0.00 0.00 0.00 58 1015.0
20260509084124 56 83 1.0 1.0 0.00 0.00 0.00 58 1015.1
20260509083724 56 135 1.0 1.0 0.00 0.00 0.00 58 1015.0
20260509082119 56 135 1.0 2.0 0.00 0.00 0.00 57 1015.4
20260509081720 56 135 0.0 4.0 0.00 0.00 0.00 57 1015.2
20260509081321 56 135 1.0 2.0 0.00 0.00 0.00 57 1015.2
20260509080917 56 200 1.0 1.0 0.00 0.00 0.00 57 1015.3
20260509080513 56 180 0.0 0.0 0.00 0.00 0.00 57 1015.3
20260509080113 56 135 0.0 1.0 0.00 0.00 0.00 57 1015.3
20260509075710 56 81 0.0 1.0 0.00 0.00 0.00 57 1015.3
20260509074507 56 135 2.0 2.0 0.00 0.00 0.00 57 1015.4
20260509074105 56 135 2.0 3.0 0.00 0.00 0.00 57 1015.3
20260509073703 57 135 2.0 2.0 0.00 0.00 0.00 56 1015.4
20260509073302 57 135 2.0 2.0 0.00 0.00 0.00 56 1015.4
20260509072901 57 135 0.0 1.0 0.00 0.00 0.00 56 1015.4
20260509072502 57 135 1.0 2.0 0.00 0.00 0.00 56 1015.4
20260509072059 57 135 1.0 1.0 0.00 0.00 0.00 56 1015.4
20260509071658 56 135 0.0 0.0 0.00 0.00 0.00 56 1015.5
20260509070855 57 42 0.0 1.0 0.00 0.00 0.00 56 1015.5
20260509070053 57 135 1.0 1.0 0.00 0.00 0.00 56 1015.5
20260509065249 57 135 1.0 1.0 0.00 0.00 0.00 56 1015.6
20260509064848 57 85 0.0 1.0 0.00 0.00 0.00 56 1015.6
20260509064447 57 230 0.0 0.0 0.00 0.00 0.00 55 1015.6
20260509064047 57 335 0.0 0.0 0.00 0.00 0.00 55 1015.6
20260509063244 57 342 0.0 0.0 0.00 0.00 0.00 55 1015.7
20260509062442 58 326 0.0 0.0 0.00 0.00 0.00 55 1015.6
20260509060836 58 45 0.0 0.0 0.00 0.00 0.00 54 1015.6
20260509055639 58 45 0.0 0.0 0.00 0.00 0.00 54 1015.6
20260509055236 58 135 0.0 1.0 0.00 0.00 0.00 54 1015.7
20260509054428 58 76 0.0 0.0 0.00 0.00 0.00 54 1015.7
20260509054027 58 42 0.0 0.0 0.00 0.00 0.00 54 1015.8
20260509053226 58 42 0.0 0.0 0.00 0.00 0.00 53 1015.8
20260509052823 58 45 0.0 1.0 0.00 0.00 0.00 53 1015.8
20260509052422 58 135 1.0 1.0 0.00 0.00 0.00 53 1015.8
20260509052020 58 135 1.0 2.0 0.00 0.00 0.00 53 1015.8
20260509051618 59 135 1.0 2.0 0.00 0.00 0.00 53 1015.7
20260509050415 59 135 2.0 2.0 0.00 0.00 0.00 53 1015.7
20260509045618 59 135 1.0 2.0 0.00 0.00 0.00 52 1015.8
20260509044410 59 135 1.0 2.0 0.00 0.00 0.00 52 1015.7
20260509044013 59 135 2.0 2.0 0.00 0.00 0.00 51 1015.6
20260509043608 59 135 2.0 2.0 0.00 0.00 0.00 51 1015.6
20260509042003 59 135 2.0 4.0 0.00 0.00 0.00 51 1015.5
20260509040805 60 135 5.0 5.0 0.00 0.00 0.00 50 1015.4
20260509035553 60 121 4.0 5.0 0.00 0.00 0.00 49 1015.3
20260509034751 61 130 4.0 4.0 0.00 0.00 0.00 48 1015.3
20260509033145 62 135 4.0 5.0 0.00 0.00 0.00 47 1015.1
20260509032744 62 135 3.0 4.0 0.00 0.00 0.00 46 1015.0
20260509031541 63 126 4.0 5.0 0.00 0.00 0.00 45 1014.8
20260509031139 63 135 3.0 4.0 0.00 0.00 0.00 45 1014.8
20260509030337 63 135 4.0 7.0 0.00 0.00 0.00 44 1014.7
20260509025535 63 110 5.0 10.0 0.00 0.00 0.00 43 1014.6
20260509024731 64 132 6.0 8.0 0.00 0.00 0.00 41 1014.6
20260509023528 65 112 6.0 9.0 0.00 0.00 0.00 40 1014.4
20260509022725 66 135 7.0 10.0 0.00 0.00 0.00 39 1014.4
20260509021922 66 137 6.0 12.0 0.00 0.00 0.00 38 1014.3
20260509015917 68 132 5.0 10.0 0.00 0.00 0.00 36 1014.2
20260509015515 68 128 7.0 8.0 0.00 0.00 0.00 35 1014.1
20260509015114 69 132 7.0 9.0 0.00 0.00 0.00 35 1014.1
20260509014712 69 128 7.0 14.0 0.00 0.00 0.00 34 1014.1
20260509014331 69 128 7.0 10.0 0.00 0.00 0.00 34 1014.1
20260509013913 70 135 9.0 9.0 0.00 0.00 0.00 33 1013.9
20260509012706 73 135 9.0 11.0 0.00 0.00 0.00 33 1014.0
20260509012307 74 135 8.0 8.0 0.00 0.00 0.00 32 1014.0
20260509011903 74 135 8.0 9.0 0.00 0.00 0.00 32 1013.9
20260509011501 76 139 5.0 9.0 0.00 0.00 0.00 32 1013.9
20260509011101 76 148 7.0 9.0 0.00 0.00 0.00 32 1014.0
20260509010258 77 139 8.0 9.0 0.00 0.00 0.00 31 1013.9
20260509005501 80 177 5.0 6.0 0.00 0.00 0.00 31 1013.9
20260509003853 0 145 2.0 6.0 0.00 0.00 0.00 30 1013.9
20260509003048 81 188 6.0 6.0 0.00 0.00 0.00 30 1013.8
20260509002646 81 154 4.0 8.0 0.00 0.00 0.00 30 1013.8
20260509002245 80 160 6.0 9.0 0.00 0.00 0.00 30 1013.8
20260509001443 80 139 10.0 10.0 0.00 0.00 0.00 30 1013.8
20260509001041 80 193 6.0 8.0 0.00 0.00 0.00 30 1013.9
20260509000640 80 193 6.0 9.0 0.00 0.00 0.00 30 1013.9
20260508235840 80 171 3.0 9.0 0.00 0.00 0.00 30 1013.9
20260508235041 79 139 9.0 12.0 0.00 0.00 0.00 29 1013.9
20260508234635 78 130 7.0 11.0 0.00 0.00 0.00 29 1014.0
20260508233430 80 155 11.0 12.0 0.00 0.00 0.00 29 1014.0
20260508233028 79 144 8.0 15.0 0.00 0.00 0.00 29 1014.0
20260508232627 80 135 10.0 13.0 0.00 0.00 0.00 29 1014.0
20260508231825 80 139 5.0 10.0 0.00 0.00 0.00 28 1014.1
20260508231424 81 121 9.0 9.0 0.00 0.00 0.00 28 1014.2
20260508231022 81 114 7.0 11.0 0.00 0.00 0.00 28 1014.2
20260508230219 81 119 7.0 11.0 0.00 0.00 0.00 28 1014.3
20260508225818 82 135 8.0 9.0 0.00 0.00 0.00 28 1014.3
20260508225417 82 175 5.0 11.0 0.00 0.00 0.00 28 1014.4
20260508224215 82 117 9.0 9.0 0.00 0.00 0.00 28 1014.5
20260508223411 83 148 7.0 10.0 0.00 0.00 0.00 28 1014.6
20260508221805 82 135 4.0 11.0 0.00 0.00 0.00 28 1014.8
20260508220604 0 135 11.0 11.0 0.00 0.00 0.00 28 1015.0
20260508220602 84 135 11.0 11.0 0.00 0.00 0.00 28 1015.0
20260508220200 85 130 6.0 9.0 0.00 0.00 0.00 28 1015.1
20260508215758 86 146 5.0 9.0 0.00 0.00 0.00 28 1015.1
20260508214958 85 145 10.0 16.0 0.00 0.00 0.00 28 1015.2
20260508214556 85 148 4.0 9.0 0.00 0.00 0.00 28 1015.1
20260508214154 84 135 9.0 9.0 0.00 0.00 0.00 28 1015.2
20260508213752 85 155 3.0 9.0 0.00 0.00 0.00 28 1015.1
20260508212147 84 92 2.0 10.0 0.00 0.00 0.00 28 1015.3
20260508211348 85 160 2.0 9.0 0.00 0.00 0.00 28 1015.4
20260508210953 83 117 6.0 10.0 0.00 0.00 0.00 29 1015.4
20260508210548 84 137 6.0 9.0 0.00 0.00 0.00 29 1015.5
20260508210141 85 144 5.0 10.0 0.00 0.00 0.00 29 1015.5
20260508205744 86 126 8.0 13.0 0.00 0.00 0.00 29 1015.6
20260508204141 86 119 1.0 6.0 0.00 0.00 0.00 30 1015.7
20260508203733 86 175 1.0 7.0 0.00 0.00 0.00 30 1015.8
20260508203332 86 103 7.0 7.0 0.00 0.00 0.00 30 1015.8
20260508202931 87 222 4.0 7.0 0.00 0.00 0.00 30 1015.9
20260508202529 85 123 3.0 11.0 0.00 0.00 0.00 31 1015.9
20260508202128 86 195 4.0 8.0 0.00 0.00 0.00 31 1016.1
20260508201727 85 280 3.0 3.0 0.00 0.00 0.00 31 1016.1
20260508201325 83 114 0.0 7.0 0.00 0.00 0.00 31 1016.2
20260508200926 82 153 4.0 10.0 0.00 0.00 0.00 31 1016.1
20260508200121 83 92 4.0 7.0 0.00 0.00 0.00 32 1016.2
20260508194918 82 205 1.0 4.0 0.00 0.00 0.00 32 1016.2
20260508194517 80 63 4.0 7.0 0.00 0.00 0.00 32 1016.2
20260508194115 79 45 3.0 8.0 0.00 0.00 0.00 32 1016.4
20260508193714 79 63 6.0 9.0 0.00 0.00 0.00 32 1016.4
20260508193312 79 83 5.0 7.0 0.00 0.00 0.00 32 1016.5
20260508192513 81 135 9.0 9.0 0.00 0.00 0.00 33 1016.6
20260508191707 80 77 3.0 6.0 0.00 0.00 0.00 33 1016.7
20260508190905 82 126 4.0 6.0 0.00 0.00 0.00 34 1016.8
20260508185306 80 229 1.0 3.0 0.00 0.00 0.00 35 1017.0
20260508184858 78 97 0.0 2.0 0.00 0.00 0.00 35 1017.0
20260508182852 75 36 6.0 6.0 0.00 0.00 0.00 36 1017.1
20260508182451 76 51 4.0 7.0 0.00 0.00 0.00 36 1017.0
20260508182049 75 327 1.0 7.0 0.00 0.00 0.00 37 1017.2
20260508181247 74 78 4.0 8.0 0.00 0.00 0.00 38 1017.3
20260508180846 74 139 2.0 9.0 0.00 0.00 0.00 38 1017.3
20260508180444 73 92 8.0 8.0 0.00 0.00 0.00 39 1017.3
20260508174839 72 335 0.0 7.0 0.00 0.00 0.00 41 1017.4
20260508174038 73 20 1.0 1.0 0.00 0.00 0.00 42 1017.5
20260508173635 73 132 1.0 3.0 0.00 0.00 0.00 43 1017.5
20260508172832 72 38 0.0 3.0 0.00 0.00 0.00 44 1017.6
20260508172431 71 117 1.0 2.0 0.00 0.00 0.00 44 1017.6
20260508171629 71 42 1.0 3.0 0.00 0.00 0.00 46 1017.7
20260508171227 70 170 0.0 3.0 0.00 0.00 0.00 46 1017.7
20260508170826 69 265 0.0 1.0 0.00 0.00 0.00 47 1017.8
20260508170425 69 208 0.0 4.0 0.00 0.00 0.00 48 1017.7
20260508170024 68 297 2.0 5.0 0.00 0.00 0.00 47 1017.6
20260508165623 68 36 1.0 3.0 0.00 0.00 0.00 48 1017.7
20260508165225 67 306 1.0 3.0 0.00 0.00 0.00 48 1017.7
20260508164822 67 279 3.0 3.0 0.00 0.00 0.00 49 1017.7
20260508164419 67 227 2.0 3.0 0.00 0.00 0.00 49 1017.6
20260508163616 66 172 0.0 3.0 0.00 0.00 0.00 49 1017.6
20260508162012 64 180 0.0 2.0 0.00 0.00 0.00 51 1017.5
20260508161611 64 36 1.0 2.0 0.00 0.00 0.00 51 1017.5
20260508161208 64 225 0.0 2.0 0.00 0.00 0.00 51 1017.5
20260508155603 63 288 2.0 2.0 0.00 0.00 0.00 52 1017.5
20260508155202 63 283 1.0 2.0 0.00 0.00 0.00 52 1017.6
20260508154801 63 292 0.0 2.0 0.00 0.00 0.00 53 1017.5
20260508154359 62 202 1.0 2.0 0.00 0.00 0.00 53 1017.5
20260508153958 62 3 0.0 1.0 0.00 0.00 0.00 53 1017.6
20260508153157 62 56 0.0 1.0 0.00 0.00 0.00 53 1017.6
20260508152355 61 204 0.0 2.0 0.00 0.00 0.00 54 1017.6
20260508151149 60 146 1.0 3.0 0.00 0.00 0.00 56 1017.7
20260508150747 60 135 3.0 4.0 0.00 0.00 0.00 56 1017.7
20260508145945 60 135 1.0 2.0 0.00 0.00 0.00 56 1017.7
20260508145544 59 142 1.0 2.0 0.00 0.00 0.00 56 1017.5
20260508145143 59 342 0.0 2.0 0.00 0.00 0.00 56 1017.7
20260508144343 59 135 0.0 2.0 0.00 0.00 0.00 56 1017.7
20260508143542 59 130 0.0 1.0 0.00 0.00 0.00 56 1017.8
20260508143136 59 180 0.0 1.0 0.00 0.00 0.00 56 1017.7
20260508142735 58 235 1.0 1.0 0.00 0.00 0.00 57 1017.7
20260508142333 58 78 0.0 2.0 0.00 0.00 0.00 56 1017.8
20260508141531 58 101 1.0 2.0 0.00 0.00 0.00 56 1017.7
20260508141247 58 180 0.0 3.0 0.00 0.00 0.00 56 1017.8
20260508141130 58 180 0.0 3.0 0.00 0.00 0.00 56 1017.8
20260508140729 58 182 1.0 2.0 0.00 0.00 0.00 56 1017.6
20260508140329 58 182 0.0 1.0 0.00 0.00 0.00 55 1017.6
20260508135925 58 135 0.0 2.0 0.00 0.00 0.00 56 1017.6
20260508135524 58 184 1.0 4.0 0.00 0.00 0.00 55 1017.4
20260508135123 58 312 0.0 3.0 0.00 0.00 0.00 56 1017.5
20260508134722 58 166 1.0 1.0 0.00 0.00 0.00 55 1017.4
20260508134321 58 135 1.0 1.0 0.00 0.00 0.00 55 1017.4
20260508133518 58 135 4.0 4.0 0.00 0.00 0.00 56 1017.3
20260508133117 58 135 0.0 3.0 0.00 0.00 0.00 56 1017.3
20260508132316 58 182 0.0 1.0 0.00 0.00 0.00 56 1017.3
20260508131914 58 191 1.0 3.0 0.00 0.00 0.00 56 1017.4
20260508131516 58 135 1.0 2.0 0.00 0.00 0.00 56 1017.2
20260508125912 58 139 2.0 3.0 0.00 0.00 0.00 56 1017.1
20260508124705 58 83 0.0 4.0 0.00 0.00 0.00 56 1017.1
20260508123900 58 135 1.0 5.0 0.00 0.00 0.00 56 1017.0
20260508123459 57 135 1.0 3.0 0.00 0.00 0.00 56 1016.9
20260508123058 57 121 1.0 1.0 0.00 0.00 0.00 56 1016.9
20260508122657 57 184 1.0 2.0 0.00 0.00 0.00 56 1016.9
20260508122255 57 148 0.0 4.0 0.00 0.00 0.00 56 1017.0
20260508121853 57 182 0.0 1.0 0.00 0.00 0.00 56 1016.8
20260508121452 57 85 0.0 1.0 0.00 0.00 0.00 56 1016.8
20260508121051 57 180 0.0 2.0 0.00 0.00 0.00 56 1016.9
20260508120650 57 135 0.0 4.0 0.00 0.00 0.00 56 1016.8
20260508120249 57 135 2.0 3.0 0.00 0.00 0.00 56 1016.8
20260508115848 57 83 1.0 2.0 0.00 0.00 0.00 56 1016.7
20260508115446 57 78 0.0 1.0 0.00 0.00 0.00 56 1016.8
20260508114644 57 121 3.0 5.0 0.00 0.00 0.00 56 1016.8
20260508114242 56 121 3.0 3.0 0.00 0.00 0.00 57 1016.7
20260508113843 56 123 2.0 3.0 0.00 0.00 0.00 57 1016.7
20260508111836 55 123 4.0 4.0 0.00 0.00 0.00 57 1016.6